Voltar ao catálogo

LYRA-3

AtivoComunicaçõesSSO
NORAD 64577·PAYLOAD·🇦🇺 Australia

Lançado Jun 23, 2025 de Vandenberg Space Force Base

Loading…

Próximas Passagens (próximas 24 horas)

TLE

AtualizadoSource: Space-Track

Época: Sep 14, 2026, 14:18 UTC

1 64577U 25135BB  26257.59652443  .00001099  00000-0  17126-3 0  9994
2 64577  97.7765 359.0286 0021809  56.4935 303.8355 14.74692999 66444

Acompanhe LYRA-3 em tempo real com AllMySat

Download on the App Store